Time,TemperatureF,DewpointF,PressureIn,WindDirection,WindDirectionDegrees,WindSpeedMPH,WindSpeedGustMPH,Humidity,HourlyPrecipIn,Conditions,Clouds,dailyrainin,SoftwareType,DateUTC
2013-01-20 00:01:00,43.2,6.5,28.61,South,174,2.0,7.6,21,0.00,,,0.00,WSDL version 420,2013-01-20 05:01:00,
2013-01-20 00:02:00,43.2,6.9,28.61,SW,219,2.3,7.6,24,0.00,,,0.00,WSDL version 420,2013-01-20 05:02:00,
2013-01-20 00:03:00,43.2,7.4,28.61,SW,235,0.9,7.6,24,0.00,,,0.00,WSDL version 420,2013-01-20 05:03:00,
2013-01-20 00:04:00,43.2,8.2,28.61,WSW,250,0.0,7.6,24,0.00,,,0.00,WSDL version 420,2013-01-20 05:04:00,
2013-01-20 00:10:00,43.1,8.8,28.61,South,175,0.7,6.3,24,0.00,,,0.00,WSDL version 420,2013-01-20 05:10:00,
2013-01-20 00:15:00,43.1,8.8,28.61,West,262,2.5,16.3,24,0.00,,,0.00,WSDL version 420,2013-01-20 05:15:00,
2013-01-20 00:20:00,43.1,8.7,28.61,NW,326,2.5,16.3,24,0.00,,,0.00,WSDL version 420,2013-01-20 05:20:00,
2013-01-20 00:25:00,43.0,8.7,28.61,WSW,250,2.5,10.5,24,0.00,,,0.00,WSDL version 420,2013-01-20 05:25:00,
2013-01-20 00:31:00,43.0,10.0,28.61,WSW,245,3.1,11.4,27,0.00,,,0.00,WSDL version 420,2013-01-20 05:31:00,
2013-01-20 00:37:00,42.9,11.2,28.61,SW,219,1.6,11.4,27,0.00,,,0.00,WSDL version 420,2013-01-20 05:37:00,
2013-01-20 00:42:00,42.7,11.0,28.61,SW,215,2.3,11.9,27,0.00,,,0.00,WSDL version 420,2013-01-20 05:42:00,
2013-01-20 00:47:00,42.6,10.9,28.61,SSW,205,0.8,11.9,27,0.00,,,0.00,WSDL version 420,2013-01-20 05:47:00,
2013-01-20 00:53:00,42.3,10.7,28.61,SSW,195,1.6,11.9,27,0.00,,,0.00,WSDL version 420,2013-01-20 05:53:00,
2013-01-20 00:59:00,42.1,11.4,28.61,SSW,203,3.8,11.9,28,0.00,,,0.00,WSDL version 420,2013-01-20 05:59:00,
2013-01-20 01:04:00,42.1,11.3,28.61,SW,228,0.8,8.3,28,0.00,,,0.00,WSDL version 420,2013-01-20 06:04:00,
2013-01-20 01:09:00,41.8,11.3,28.61,SW,230,2.0,9.6,29,0.00,,,0.00,WSDL version 420,2013-01-20 06:09:00,
2013-01-20 01:15:00,41.5,11.7,28.59,SSW,208,0.3,9.6,29,0.00,,,0.00,WSDL version 420,2013-01-20 06:15:00,
2013-01-20 01:20:00,41.4,11.5,28.59,West,260,1.7,7.6,29,0.00,,,0.00,WSDL version 420,2013-01-20 06:20:00,
2013-01-20 01:25:00,41.2,12.0,28.59,SSW,203,0.5,7.6,30,0.00,,,0.00,WSDL version 420,2013-01-20 06:25:00,
2013-01-20 01:30:00,41.1,12.1,28.61,ENE,62,1.2,8.7,31,0.00,,,0.00,WSDL version 420,2013-01-20 06:30:00,
2013-01-20 01:35:00,41.0,12.7,28.61,West,262,0.0,8.7,31,0.00,,,0.00,WSDL version 420,2013-01-20 06:35:00,
2013-01-20 01:42:00,40.9,12.6,28.61,SW,223,1.0,7.2,31,0.00,,,0.00,WSDL version 420,2013-01-20 06:42:00,
2013-01-20 01:48:00,40.6,13.1,28.61,South,191,0.0,5.4,32,0.00,,,0.00,WSDL version 420,2013-01-20 06:48:00,
2013-01-20 01:54:00,40.4,12.9,28.61,SSW,211,0.8,4.9,32,0.00,,,0.00,WSDL version 420,2013-01-20 06:54:00,
2013-01-20 01:59:00,40.3,13.1,28.61,SSW,200,1.5,5.4,33,0.00,,,0.00,WSDL version 420,2013-01-20 06:59:00,
2013-01-20 02:05:00,40.2,13.4,28.61,WSW,242,1.0,5.4,33,0.00,,,0.00,WSDL version 420,2013-01-20 07:05:00,
2013-01-20 02:11:00,40.1,13.6,28.61,South,186,3.1,7.6,34,0.00,,,0.00,WSDL version 420,2013-01-20 07:11:00,
2013-01-20 02:16:00,40.1,14.0,28.61,West,270,1.2,9.6,34,0.00,,,0.00,WSDL version 420,2013-01-20 07:16:00,
2013-01-20 02:21:00,39.9,14.2,28.61,WSW,245,1.2,9.6,35,0.00,,,0.00,WSDL version 420,2013-01-20 07:21:00,
2013-01-20 02:27:00,39.8,14.4,28.61,South,191,0.0,6.3,35,0.00,,,0.00,WSDL version 420,2013-01-20 07:27:00,
2013-01-20 02:33:00,39.8,14.6,28.61,SSW,208,1.7,14.5,36,0.00,,,0.00,WSDL version 420,2013-01-20 07:33:00,
2013-01-20 02:39:00,39.9,15.1,28.61,SW,233,1.1,14.5,36,0.00,,,0.00,WSDL version 420,2013-01-20 07:39:00,
2013-01-20 02:44:00,39.8,15.4,28.61,SW,230,1.2,8.7,37,0.00,,,0.00,WSDL version 420,2013-01-20 07:44:00,
2013-01-20 02:50:00,40.0,15.8,28.61,WSW,253,1.0,8.7,37,0.00,,,0.00,WSDL version 420,2013-01-20 07:50:00,
2013-01-20 02:56:00,40.0,15.8,28.61,SSW,198,0.9,7.2,37,0.00,,,0.00,WSDL version 420,2013-01-20 07:56:00,
2013-01-20 03:01:00,40.0,15.8,28.61,South,188,1.5,7.6,37,0.00,,,0.00,WSDL version 420,2013-01-20 08:01:00,
2013-01-20 03:06:00,40.0,15.8,28.61,SW,218,3.1,10.5,37,0.00,,,0.00,WSDL version 420,2013-01-20 08:06:00,
2013-01-20 03:11:00,39.8,15.7,28.64,SE,125,0.0,10.5,37,0.00,,,0.00,WSDL version 420,2013-01-20 08:11:00,
2013-01-20 03:17:00,39.7,15.3,28.64,South,191,2.8,12.3,36,0.00,,,0.00,WSDL version 420,2013-01-20 08:17:00,
2013-01-20 03:22:00,39.5,13.3,28.64,West,268,2.3,12.8,34,0.00,,,0.00,WSDL version 420,2013-01-20 08:22:00,
2013-01-20 03:28:00,39.2,12.6,28.61,South,172,1.3,12.8,32,0.00,,,0.00,WSDL version 420,2013-01-20 08:28:00,
2013-01-20 03:34:00,38.9,10.8,28.61,South,188,0.6,8.7,31,0.00,,,0.00,WSDL version 420,2013-01-20 08:34:00,
2013-01-20 03:40:00,38.6,11.3,28.61,SW,233,0.5,5.8,32,0.00,,,0.00,WSDL version 420,2013-01-20 08:40:00,
2013-01-20 03:45:00,38.4,11.0,28.61,SSW,213,1.3,11.0,31,0.00,,,0.00,WSDL version 420,2013-01-20 08:45:00,
2013-01-20 03:50:00,38.2,8.6,28.61,SW,231,4.0,11.0,28,0.00,,,0.00,WSDL version 420,2013-01-20 08:50:00,
2013-01-20 03:56:00,37.8,5.7,28.64,South,180,2.4,10.5,26,0.00,,,0.00,WSDL version 420,2013-01-20 08:56:00,
2013-01-20 04:01:00,37.4,5.7,28.64,SW,233,3.1,8.7,26,0.00,,,0.00,WSDL version 420,2013-01-20 09:01:00,
2013-01-20 04:06:00,37.0,6.4,28.64,SE,130,1.7,9.2,26,0.00,,,0.00,WSDL version 420,2013-01-20 09:06:00,
2013-01-20 04:12:00,36.4,6.4,28.64,West,264,2.0,9.2,28,0.00,,,0.00,WSDL version 420,2013-01-20 09:12:00,
2013-01-20 04:17:00,36.0,6.0,28.64,SSE,167,2.0,8.3,28,0.00,,,0.00,WSDL version 420,2013-01-20 09:17:00,
2013-01-20 04:22:00,35.7,5.1,28.64,SSE,153,3.6,10.5,26,0.00,,,0.00,WSDL version 420,2013-01-20 09:22:00,
2013-01-20 04:27:00,35.4,3.9,28.67,East,93,0.0,10.5,26,0.00,,,0.00,WSDL version 420,2013-01-20 09:27:00,
2013-01-20 04:32:00,35.0,3.5,28.67,SSW,194,2.2,4.0,26,0.00,,,0.00,WSDL version 420,2013-01-20 09:32:00,
2013-01-20 04:38:00,34.7,3.3,28.67,SE,135,1.2,6.7,26,0.00,,,0.00,WSDL version 420,2013-01-20 09:38:00,
2013-01-20 04:43:00,34.5,3.1,28.67,SSW,197,0.0,6.7,26,0.00,,,0.00,WSDL version 420,2013-01-20 09:43:00,
2013-01-20 04:48:00,34.4,3.0,28.67,WNW,287,0.0,7.6,26,0.00,,,0.00,WSDL version 420,2013-01-20 09:48:00,
2013-01-20 04:53:00,34.3,2.9,28.67,SSE,166,0.3,7.6,26,0.00,,,0.00,WSDL version 420,2013-01-20 09:53:00,
2013-01-20 04:59:00,34.1,2.3,28.67,SSE,168,1.1,8.3,26,0.00,,,0.00,WSDL version 420,2013-01-20 09:59:00,
2013-01-20 05:04:00,33.8,2.2,28.67,WSW,242,2.5,8.3,24,0.00,,,0.00,WSDL version 420,2013-01-20 10:04:00,
2013-01-20 05:09:00,33.6,1.3,28.67,SSE,158,2.8,8.1,24,0.00,,,0.00,WSDL version 420,2013-01-20 10:09:00,
2013-01-20 05:15:00,33.1,0.2,28.67,WSW,255,2.3,7.6,24,0.00,,,0.00,WSDL version 420,2013-01-20 10:15:00,
2013-01-20 05:20:00,32.8,0.0,28.67,SW,230,0.2,6.7,24,0.00,,,0.00,WSDL version 420,2013-01-20 10:20:00,
2013-01-20 05:25:00,32.6,0.6,28.67,West,273,2.9,7.2,26,0.00,,,0.00,WSDL version 420,2013-01-20 10:25:00,
2013-01-20 05:30:00,32.6,1.5,28.67,ENE,58,0.0,7.2,26,0.00,,,0.00,WSDL version 420,2013-01-20 10:30:00,
2013-01-20 05:35:00,32.4,1.3,28.67,SSE,163,0.0,7.2,26,0.00,,,0.00,WSDL version 420,2013-01-20 10:35:00,
2013-01-20 05:40:00,32.4,1.3,28.67,ENE,78,0.0,5.4,26,0.00,,,0.00,WSDL version 420,2013-01-20 10:40:00,
2013-01-20 05:45:00,32.2,3.0,28.70,NNW,346,0.0,5.4,27,0.00,,,0.00,WSDL version 420,2013-01-20 10:45:00,
2013-01-20 05:50:00,31.2,4.3,28.70,ESE,105,1.6,6.7,27,0.00,,,0.00,WSDL version 420,2013-01-20 10:50:00,
2013-01-20 05:55:00,30.1,2.4,28.70,SE,130,0.0,10.1,25,0.00,,,0.00,WSDL version 420,2013-01-20 10:55:00,
2013-01-20 06:00:00,29.2,1.0,28.73,ESE,113,1.0,10.1,25,0.00,,,0.00,WSDL version 420,2013-01-20 11:00:00,
2013-01-20 06:05:00,28.7,0.5,28.73,SE,125,0.7,5.8,25,0.00,,,0.00,WSDL version 420,2013-01-20 11:05:00,
2013-01-20 06:10:00,28.2,0.1,28.73,East,96,0.0,7.6,25,0.00,,,0.00,WSDL version 420,2013-01-20 11:10:00,
2013-01-20 06:16:00,27.8,-0.2,28.76,NNE,30,0.2,7.2,25,0.00,,,0.00,WSDL version 420,2013-01-20 11:16:00,
2013-01-20 06:22:00,27.5,-0.5,28.76,WNW,289,0.0,4.9,25,0.00,,,0.00,WSDL version 420,2013-01-20 11:22:00,
2013-01-20 06:27:00,27.1,-0.8,28.76,ENE,65,0.0,4.0,25,0.00,,,0.00,WSDL version 420,2013-01-20 11:27:00,
2013-01-20 06:32:00,26.7,0.0,28.76,ENE,60,0.0,5.4,28,0.00,,,0.00,WSDL version 420,2013-01-20 11:32:00,
2013-01-20 06:37:00,26.0,0.3,28.76,ENE,78,0.0,5.4,28,0.00,,,0.00,WSDL version 420,2013-01-20 11:37:00,
2013-01-20 06:43:00,25.3,0.7,28.79,SW,233,0.0,7.2,30,0.00,,,0.00,WSDL version 420,2013-01-20 11:43:00,
2013-01-20 06:49:00,24.8,0.5,28.79,ENE,73,0.0,7.2,30,0.00,,,0.00,WSDL version 420,2013-01-20 11:49:00,
2013-01-20 06:55:00,24.4,0.2,28.79,East,90,0.0,5.8,30,0.00,,,0.00,WSDL version 420,2013-01-20 11:55:00,
2013-01-20 07:00:00,24.0,-0.2,28.79,South,180,0.0,6.3,30,0.00,,,0.00,WSDL version 420,2013-01-20 12:00:00,
2013-01-20 07:05:00,23.7,-0.4,28.79,ENE,65,0.0,6.3,30,0.00,,,0.00,WSDL version 420,2013-01-20 12:05:00,
2013-01-20 07:11:00,23.5,-0.3,28.82,SSW,197,0.0,8.3,31,0.00,,,0.00,WSDL version 420,2013-01-20 12:11:00,
2013-01-20 07:16:00,23.3,-0.2,28.82,SSE,155,0.0,8.3,31,0.00,,,0.00,WSDL version 420,2013-01-20 12:16:00,
2013-01-20 07:22:00,23.0,-0.5,28.82,NE,56,0.0,5.4,31,0.00,,,0.00,WSDL version 420,2013-01-20 12:22:00,
2013-01-20 07:28:00,22.8,-0.6,28.82,ESE,118,0.0,5.4,31,0.00,,,0.00,WSDL version 420,2013-01-20 12:28:00,
2013-01-20 07:34:00,22.6,-2.4,28.82,South,180,0.0,3.6,28,0.00,,,0.00,WSDL version 420,2013-01-20 12:34:00,
2013-01-20 07:40:00,22.3,-3.0,28.82,WSW,253,1.5,5.8,28,0.00,,,0.00,WSDL version 420,2013-01-20 12:40:00,
2013-01-20 07:45:00,22.2,-3.1,28.85,East,87,0.0,8.7,28,0.00,,,0.00,WSDL version 420,2013-01-20 12:45:00,
2013-01-20 07:50:00,22.1,-3.2,28.85,East,79,0.0,8.7,28,0.00,,,0.00,WSDL version 420,2013-01-20 12:50:00,
2013-01-20 07:56:00,22.1,-3.2,28.85,SSW,200,0.0,8.7,28,0.00,,,0.00,WSDL version 420,2013-01-20 12:56:00,
2013-01-20 08:01:00,22.1,-2.8,28.85,SSE,168,0.0,8.7,31,0.00,,,0.00,WSDL version 420,2013-01-20 13:01:00,
2013-01-20 08:07:00,22.3,-1.1,28.85,SE,140,0.0,7.2,31,0.00,,,0.00,WSDL version 420,2013-01-20 13:07:00,
2013-01-20 08:12:00,22.2,-1.6,28.85,ENE,70,0.0,2.7,31,0.00,,,0.00,WSDL version 420,2013-01-20 13:12:00,
2013-01-20 08:18:00,22.2,-1.2,28.85,South,170,0.0,4.0,31,0.00,,,0.00,WSDL version 420,2013-01-20 13:18:00,
2013-01-20 08:24:00,22.2,-2.7,28.85,NE,48,0.0,7.6,31,0.00,,,0.00,WSDL version 420,2013-01-20 13:24:00,
2013-01-20 08:29:00,22.1,-2.8,28.85,SSW,195,0.0,3.1,31,0.00,,,0.00,WSDL version 420,2013-01-20 13:29:00,
2013-01-20 08:34:00,22.1,-3.2,28.85,SSW,198,0.0,4.9,28,0.00,,,0.00,WSDL version 420,2013-01-20 13:34:00,
2013-01-20 08:40:00,22.1,-3.2,28.85,SSE,150,0.0,4.9,28,0.00,,,0.00,WSDL version 420,2013-01-20 13:40:00,
2013-01-20 08:46:00,22.0,-3.2,28.88,ESE,115,1.2,4.9,28,0.00,,,0.00,WSDL version 420,2013-01-20 13:46:00,
2013-01-20 08:51:00,21.8,-3.4,28.88,South,177,0.0,12.8,28,0.00,,,0.00,WSDL version 420,2013-01-20 13:51:00,
2013-01-20 08:56:00,21.8,-3.5,28.88,ENE,75,0.0,12.8,28,0.00,,,0.00,WSDL version 420,2013-01-20 13:56:00,
2013-01-20 09:01:00,21.6,-3.0,28.88,West,273,0.0,6.3,29,0.00,,,0.00,WSDL version 420,2013-01-20 14:01:00,
2013-01-20 09:06:00,21.5,-3.1,28.88,ENE,59,1.3,6.3,29,0.00,,,0.00,WSDL version 420,2013-01-20 14:06:00,
2013-01-20 09:12:00,21.4,-3.2,28.91,SSW,196,0.0,6.3,29,0.00,,,0.00,WSDL version 420,2013-01-20 14:12:00,
2013-01-20 09:18:00,21.9,-3.7,28.91,SSE,153,0.0,5.8,26,0.00,,,0.00,WSDL version 420,2013-01-20 14:18:00,
2013-01-20 09:23:00,22.1,-4.6,28.91,SSW,200,0.0,4.9,26,0.00,,,0.00,WSDL version 420,2013-01-20 14:23:00,
2013-01-20 09:29:00,21.7,-4.9,28.91,ENE,73,0.0,4.9,26,0.00,,,0.00,WSDL version 420,2013-01-20 14:29:00,
2013-01-20 09:35:00,21.5,-4.7,28.91,SE,135,0.0,3.6,29,0.00,,,0.00,WSDL version 420,2013-01-20 14:35:00,
2013-01-20 09:41:00,21.1,-2.6,28.94,SSE,155,1.0,5.8,32,0.00,,,0.00,WSDL version 420,2013-01-20 14:41:00,
2013-01-20 09:46:00,20.7,-1.7,28.94,NW,325,0.0,5.8,33,0.00,,,0.00,WSDL version 420,2013-01-20 14:46:00,
2013-01-20 09:51:00,20.3,-2.2,28.94,East,87,0.0,3.6,32,0.00,,,0.00,WSDL version 420,2013-01-20 14:51:00,
2013-01-20 09:57:00,20.3,-2.5,28.94,East,83,0.0,4.9,31,0.00,,,0.00,WSDL version 420,2013-01-20 14:57:00,
2013-01-20 10:02:00,20.3,-2.9,28.94,SSE,163,0.0,4.9,31,0.00,,,0.00,WSDL version 420,2013-01-20 15:02:00,
2013-01-20 10:08:00,20.1,-3.1,28.94,ESE,118,0.0,3.6,31,0.00,,,0.00,WSDL version 420,2013-01-20 15:08:00,
2013-01-20 10:14:00,19.8,-2.8,28.94,ESE,113,0.0,4.0,32,0.00,,,0.00,WSDL version 420,2013-01-20 15:14:00,
2013-01-20 10:19:00,19.5,-3.0,28.94,ESE,118,0.0,4.0,32,0.00,,,0.00,WSDL version 420,2013-01-20 15:19:00,
2013-01-20 10:25:00,19.4,-3.1,28.94,SE,135,0.0,3.6,32,0.00,,,0.00,WSDL version 420,2013-01-20 15:25:00,
2013-01-20 10:31:00,19.3,-3.3,28.94,SSE,168,0.0,5.8,32,0.00,,,0.00,WSDL version 420,2013-01-20 15:31:00,
2013-01-20 10:36:00,19.1,-3.4,28.94,SE,143,0.0,5.8,32,0.00,,,0.00,WSDL version 420,2013-01-20 15:36:00,
2013-01-20 10:42:00,18.8,-3.1,28.97,ESE,120,0.0,5.8,33,0.00,,,0.00,WSDL version 420,2013-01-20 15:42:00,
2013-01-20 10:47:00,18.7,-2.3,28.97,East,79,0.0,4.0,35,0.00,,,0.00,WSDL version 420,2013-01-20 15:47:00,
2013-01-20 10:52:00,18.7,-1.7,28.97,East,84,0.0,3.6,36,0.00,,,0.00,WSDL version 420,2013-01-20 15:52:00,
2013-01-20 10:58:00,18.5,-1.3,28.97,East,87,0.0,3.6,37,0.00,,,0.00,WSDL version 420,2013-01-20 15:58:00,
2013-01-20 11:03:00,18.4,-1.2,28.97,ESE,115,0.0,3.6,38,0.00,,,0.00,WSDL version 420,2013-01-20 16:03:00,
2013-01-20 11:08:00,18.3,0.0,28.97,East,82,0.0,3.6,41,0.00,,,0.00,WSDL version 420,2013-01-20 16:08:00,
2013-01-20 11:13:00,18.3,1.0,28.97,SE,146,0.0,3.6,42,0.00,,,0.00,WSDL version 420,2013-01-20 16:13:00,
2013-01-20 11:18:00,18.2,1.1,28.97,ESE,122,0.0,3.6,43,0.00,,,0.00,WSDL version 420,2013-01-20 16:18:00,
2013-01-20 11:24:00,18.0,1.9,28.97,East,85,0.0,4.0,45,0.00,,,0.00,WSDL version 420,2013-01-20 16:24:00,
2013-01-20 11:29:00,17.9,2.5,28.97,East,90,0.0,4.0,47,0.00,,,0.00,WSDL version 420,2013-01-20 16:29:00,
2013-01-20 11:34:00,17.8,3.3,28.97,SSE,150,0.0,0.0,49,0.00,,,0.00,WSDL version 420,2013-01-20 16:34:00,
2013-01-20 11:40:00,17.7,4.2,28.97,ESE,113,0.0,0.0,52,0.00,,,0.00,WSDL version 420,2013-01-20 16:40:00,
2013-01-20 11:45:00,17.6,4.7,28.97,NNE,28,0.0,2.2,53,0.00,,,0.00,WSDL version 420,2013-01-20 16:45:00,
2013-01-20 11:51:00,17.4,5.2,28.97,East,87,0.0,3.1,55,0.00,,,0.00,WSDL version 420,2013-01-20 16:51:00,
2013-01-20 11:57:00,17.2,5.3,28.97,East,83,0.0,4.5,56,0.00,,,0.00,WSDL version 420,2013-01-20 16:57:00,
2013-01-20 12:02:00,17.2,5.5,28.97,East,82,0.0,4.5,56,0.00,,,0.00,WSDL version 420,2013-01-20 17:02:00,
2013-01-20 12:07:00,17.4,5.3,28.97,ENE,73,0.0,2.2,54,0.00,,,0.00,WSDL version 420,2013-01-20 17:07:00,
2013-01-20 12:12:00,17.7,5.2,28.97,East,96,0.0,3.6,53,0.00,,,0.00,WSDL version 420,2013-01-20 17:12:00,
2013-01-20 12:17:00,17.8,4.5,28.97,ENE,61,0.0,3.6,50,0.00,,,0.00,WSDL version 420,2013-01-20 17:17:00,
2013-01-20 12:22:00,18.1,3.3,28.97,ENE,58,0.0,3.1,47,0.00,,,0.00,WSDL version 420,2013-01-20 17:22:00,
2013-01-20 12:27:00,18.3,2.1,29.00,East,95,0.0,3.6,43,0.00,,,0.00,WSDL version 420,2013-01-20 17:27:00,
2013-01-20 12:32:00,18.4,1.4,29.00,East,93,0.0,3.6,42,0.00,,,0.00,WSDL version 420,2013-01-20 17:32:00,
2013-01-20 12:37:00,18.3,1.1,29.00,ENE,68,0.0,3.1,42,0.00,,,0.00,WSDL version 420,2013-01-20 17:37:00,
2013-01-20 12:42:00,18.4,0.4,29.00,ESE,108,0.0,3.1,40,0.00,,,0.00,WSDL version 420,2013-01-20 17:42:00,
2013-01-20 12:48:00,18.8,-0.4,29.00,East,100,0.0,2.7,37,0.00,,,0.00,WSDL version 420,2013-01-20 17:48:00,
2013-01-20 12:54:00,19.1,-1.3,29.00,East,84,0.0,2.7,35,0.00,,,0.00,WSDL version 420,2013-01-20 17:54:00,
2013-01-20 13:00:00,19.0,-1.8,29.00,NE,40,0.0,4.9,35,0.00,,,0.00,WSDL version 420,2013-01-20 18:00:00,
2013-01-20 13:05:00,19.0,-2.2,29.00,East,101,0.0,4.9,34,0.00,,,0.00,WSDL version 420,2013-01-20 18:05:00,
2013-01-20 13:10:00,19.9,-1.7,29.00,SSE,165,0.0,4.0,33,0.00,,,0.00,WSDL version 420,2013-01-20 18:10:00,
2013-01-20 13:16:00,20.5,-1.9,29.00,SE,125,0.0,2.7,32,0.00,,,0.00,WSDL version 420,2013-01-20 18:16:00,
2013-01-20 13:21:00,21.1,-1.6,29.00,North,8,0.0,3.6,32,0.00,,,0.00,WSDL version 420,2013-01-20 18:21:00,
2013-01-20 13:26:00,21.8,-1.4,29.00,South,191,0.0,3.6,31,0.00,,,0.00,WSDL version 420,2013-01-20 18:26:00,
2013-01-20 13:31:00,22.1,-1.3,29.00,ESE,103,0.0,4.9,31,0.00,,,0.00,WSDL version 420,2013-01-20 18:31:00,
2013-01-20 13:37:00,22.1,-1.7,29.00,East,83,0.0,6.3,28,0.00,,,0.00,WSDL version 420,2013-01-20 18:37:00,
2013-01-20 13:43:00,22.0,-1.6,29.00,East,87,0.0,6.3,31,0.00,,,0.00,WSDL version 420,2013-01-20 18:43:00,
2013-01-20 13:48:00,23.7,-0.2,29.00,East,100,0.0,0.0,30,0.00,,,0.00,WSDL version 420,2013-01-20 18:48:00,
2013-01-20 13:53:00,25.6,-0.1,29.00,East,84,0.0,4.9,28,0.00,,,0.00,WSDL version 420,2013-01-20 18:53:00,
2013-01-20 13:59:00,26.6,0.9,29.00,NE,38,0.0,4.9,28,0.00,,,0.00,WSDL version 420,2013-01-20 18:59:00,
2013-01-20 14:05:00,26.3,-1.6,29.00,West,259,0.0,2.7,25,0.00,,,0.00,WSDL version 420,2013-01-20 19:05:00,
2013-01-20 14:10:00,24.6,-3.1,29.00,SE,138,0.0,2.7,25,0.00,,,0.00,WSDL version 420,2013-01-20 19:10:00,
2013-01-20 14:15:00,24.2,-3.5,28.97,WNW,300,0.0,2.7,25,0.00,,,0.00,WSDL version 420,2013-01-20 19:15:00,
2013-01-20 14:21:00,23.8,-3.8,28.97,South,170,0.0,2.2,25,0.00,,,0.00,WSDL version 420,2013-01-20 19:21:00,
2013-01-20 14:27:00,23.7,-3.6,28.97,West,270,0.0,4.9,26,0.00,,,0.00,WSDL version 420,2013-01-20 19:27:00,
2013-01-20 14:32:00,23.1,-3.7,28.97,East,90,0.0,4.9,26,0.00,,,0.00,WSDL version 420,2013-01-20 19:32:00,
2013-01-20 14:37:00,23.3,-3.5,28.97,ENE,60,0.0,4.5,26,0.00,,,0.00,WSDL version 420,2013-01-20 19:37:00,
2013-01-20 14:43:00,22.5,-4.2,28.97,ENE,59,0.0,4.5,26,0.00,,,0.00,WSDL version 420,2013-01-20 19:43:00,
2013-01-20 14:48:00,22.7,-4.0,28.97,SE,145,0.0,4.0,26,0.00,,,0.00,WSDL version 420,2013-01-20 19:48:00,
2013-01-20 14:53:00,23.2,-3.6,28.97,South,177,0.0,0.0,26,0.00,,,0.00,WSDL version 420,2013-01-20 19:53:00,
2013-01-20 14:59:00,23.8,-3.5,28.97,East,100,0.0,0.0,25,0.00,,,0.00,WSDL version 420,2013-01-20 19:59:00,
2013-01-20 15:04:00,23.8,-3.6,28.97,SSW,208,0.0,4.9,26,0.00,,,0.00,WSDL version 420,2013-01-20 20:04:00,
2013-01-20 15:09:00,22.6,-4.1,28.97,South,190,0.0,4.9,26,0.00,,,0.00,WSDL version 420,2013-01-20 20:09:00,
2013-01-20 15:15:00,22.9,-3.9,28.97,ENE,63,0.0,0.0,26,0.00,,,0.00,WSDL version 420,2013-01-20 20:15:00,
2013-01-20 15:20:00,22.6,-4.2,28.97,ESE,120,0.0,4.9,26,0.00,,,0.00,WSDL version 420,2013-01-20 20:20:00,
2013-01-20 15:25:00,21.9,-4.7,28.97,ESE,103,0.0,4.9,26,0.00,,,0.00,WSDL version 420,2013-01-20 20:25:00,
2013-01-20 15:30:00,21.6,-5.0,28.97,West,263,0.0,2.7,26,0.00,,,0.00,WSDL version 420,2013-01-20 20:30:00,
2013-01-20 15:36:00,20.8,-5.4,28.97,SSE,150,0.0,2.7,29,0.00,,,0.00,WSDL version 420,2013-01-20 20:36:00,
2013-01-20 15:42:00,20.7,-3.8,29.00,SE,146,0.0,2.2,29,0.00,,,0.00,WSDL version 420,2013-01-20 20:42:00,
2013-01-20 15:48:00,20.4,-4.0,29.00,WNW,288,0.0,3.1,29,0.00,,,0.00,WSDL version 420,2013-01-20 20:48:00,
2013-01-20 15:53:00,20.2,-4.3,29.00,South,191,0.0,3.1,29,0.00,,,0.00,WSDL version 420,2013-01-20 20:53:00,
2013-01-20 15:59:00,19.9,-3.9,29.00,SSW,194,0.0,2.2,31,0.00,,,0.00,WSDL version 420,2013-01-20 20:59:00,
2013-01-20 16:04:00,19.8,-2.8,29.00,South,180,0.0,0.0,32,0.00,,,0.00,WSDL version 420,2013-01-20 21:04:00,
2013-01-20 16:09:00,19.6,-2.9,29.00,SSE,160,0.0,3.1,32,0.00,,,0.00,WSDL version 420,2013-01-20 21:09:00,
2013-01-20 16:15:00,19.6,-2.9,29.00,East,93,0.0,2.7,32,0.00,,,0.00,WSDL version 420,2013-01-20 21:15:00,
2013-01-20 16:21:00,19.6,-2.9,29.00,SE,146,0.0,2.2,32,0.00,,,0.00,WSDL version 420,2013-01-20 21:21:00,
2013-01-20 16:26:00,19.6,-2.9,29.00,East,90,0.0,2.2,32,0.00,,,0.00,WSDL version 420,2013-01-20 21:26:00,
2013-01-20 16:33:00,19.6,-2.9,29.00,South,180,0.0,0.0,32,0.00,,,0.00,WSDL version 420,2013-01-20 21:33:00,
2013-01-20 16:38:00,19.6,-2.9,29.00,SSE,152,0.0,0.0,32,0.00,,,0.00,WSDL version 420,2013-01-20 21:38:00,
2013-01-20 16:43:00,19.5,-3.0,29.00,WNW,300,0.0,5.4,32,0.00,,,0.00,WSDL version 420,2013-01-20 21:43:00,
2013-01-20 16:48:00,19.3,-3.3,29.00,East,85,0.0,5.4,32,0.00,,,0.00,WSDL version 420,2013-01-20 21:48:00,
2013-01-20 16:53:00,19.2,-3.4,29.00,North,360,0.0,2.7,32,0.00,,,0.00,WSDL version 420,2013-01-20 21:53:00,
2013-01-20 16:58:00,19.0,-3.4,29.00,SSW,193,0.0,3.1,32,0.00,,,0.00,WSDL version 420,2013-01-20 21:58:00,
2013-01-20 17:03:00,18.9,-3.6,29.00,SW,233,0.0,3.1,32,0.00,,,0.00,WSDL version 420,2013-01-20 22:03:00,
2013-01-20 17:08:00,18.8,-3.6,29.00,WNW,300,0.0,4.9,32,0.00,,,0.00,WSDL version 420,2013-01-20 22:08:00,
2013-01-20 17:13:00,18.7,-3.7,29.00,SSW,199,0.0,4.9,32,0.00,,,0.00,WSDL version 420,2013-01-20 22:13:00,
2013-01-20 17:18:00,18.7,-3.8,29.00,SE,141,0.0,0.0,32,0.00,,,0.00,WSDL version 420,2013-01-20 22:18:00,
2013-01-20 17:24:00,18.5,-3.9,29.00,ESE,113,0.0,0.0,32,0.00,,,0.00,WSDL version 420,2013-01-20 22:24:00,
2013-01-20 17:29:00,18.5,-3.9,29.00,ENE,58,0.0,0.0,32,0.00,,,0.00,WSDL version 420,2013-01-20 22:29:00,
2013-01-20 17:34:00,18.5,-3.9,29.00,SW,222,0.0,0.0,32,0.00,,,0.00,WSDL version 420,2013-01-20 22:34:00,
2013-01-20 17:40:00,18.5,-3.5,29.00,ESE,120,0.0,0.0,33,0.00,,,0.00,WSDL version 420,2013-01-20 22:40:00,
2013-01-20 17:46:00,18.4,-3.5,29.00,SSW,200,0.0,2.2,33,0.00,,,0.00,WSDL version 420,2013-01-20 22:46:00,
2013-01-20 17:51:00,18.4,-3.5,29.00,SSW,205,0.0,3.1,33,0.00,,,0.00,WSDL version 420,2013-01-20 22:51:00,
2013-01-20 17:57:00,18.4,-3.5,29.00,WSW,239,0.0,3.1,33,0.00,,,0.00,WSDL version 420,2013-01-20 22:57:00,
2013-01-20 18:02:00,18.4,-3.5,29.00,SE,145,0.0,0.0,33,0.00,,,0.00,WSDL version 420,2013-01-20 23:02:00,
2013-01-20 18:08:00,18.4,-3.2,29.00,SW,215,0.0,3.1,33,0.00,,,0.00,WSDL version 420,2013-01-20 23:08:00,
2013-01-20 18:13:00,18.3,-3.5,29.00,South,183,0.0,3.1,33,0.00,,,0.00,WSDL version 420,2013-01-20 23:13:00,
2013-01-20 18:19:00,18.2,-3.7,29.00,SE,143,0.0,3.6,33,0.00,,,0.00,WSDL version 420,2013-01-20 23:19:00,
2013-01-20 18:24:00,18.2,-3.7,29.00,East,90,0.0,3.6,33,0.00,,,0.00,WSDL version 420,2013-01-20 23:24:00,
2013-01-20 18:29:00,18.2,-3.7,29.00,ENE,75,0.0,2.7,33,0.00,,,0.00,WSDL version 420,2013-01-20 23:29:00,
2013-01-20 18:34:00,18.2,-3.5,29.00,SSE,155,0.0,2.7,34,0.00,,,0.00,WSDL version 420,2013-01-20 23:34:00,
2013-01-20 18:39:00,18.2,-3.7,29.00,ENE,73,0.0,0.0,33,0.00,,,0.00,WSDL version 420,2013-01-20 23:39:00,
2013-01-20 18:44:00,18.2,-3.7,29.00,WNW,290,0.0,2.7,33,0.00,,,0.00,WSDL version 420,2013-01-20 23:44:00,
2013-01-20 18:49:00,18.2,-3.7,29.00,South,190,0.0,2.7,33,0.00,,,0.00,WSDL version 420,2013-01-20 23:49:00,
2013-01-20 18:55:00,18.2,-3.7,29.00,SW,222,0.0,2.7,33,0.00,,,0.00,WSDL version 420,2013-01-20 23:55:00,
2013-01-20 19:00:00,18.1,-3.8,29.03,SE,140,0.0,2.7,33,0.00,,,0.00,WSDL version 420,2013-01-21 00:00:00,
2013-01-20 19:05:00,18.0,-3.8,29.03,WNW,295,0.0,0.0,33,0.00,,,0.00,WSDL version 420,2013-01-21 00:05:00,
2013-01-20 19:11:00,18.0,-3.4,29.00,South,180,0.0,0.0,34,0.00,,,0.00,WSDL version 420,2013-01-21 00:11:00,
2013-01-20 19:16:00,18.0,-3.3,29.00,ESE,121,0.0,2.7,34,0.00,,,0.00,WSDL version 420,2013-01-21 00:16:00,
2013-01-20 19:21:00,18.0,-3.3,29.00,East,79,0.0,2.7,34,0.00,,,0.00,WSDL version 420,2013-01-21 00:21:00,
2013-01-20 19:26:00,17.9,-3.4,29.03,SSE,155,0.0,2.2,34,0.00,,,0.00,WSDL version 420,2013-01-21 00:26:00,
2013-01-20 19:31:00,17.8,-3.4,29.03,South,180,0.0,0.0,34,0.00,,,0.00,WSDL version 420,2013-01-21 00:31:00,
2013-01-20 19:36:00,17.8,-3.4,29.03,NE,45,0.0,0.0,34,0.00,,,0.00,WSDL version 420,2013-01-21 00:36:00,
2013-01-20 19:42:00,17.8,-3.4,29.03,SE,141,0.0,2.2,34,0.00,,,0.00,WSDL version 420,2013-01-21 00:42:00,
2013-01-20 19:48:00,17.8,-3.4,29.03,ESE,104,0.0,3.1,34,0.00,,,0.00,WSDL version 420,2013-01-21 00:48:00,
2013-01-20 19:54:00,17.8,-3.4,29.03,SW,235,0.0,0.0,34,0.00,,,0.00,WSDL version 420,2013-01-21 00:54:00,
2013-01-20 20:00:00,17.8,-3.4,29.03,SE,125,0.0,0.0,34,0.00,,,0.00,WSDL version 420,2013-01-21 01:00:00,
2013-01-20 20:06:00,17.8,-3.5,29.03,South,191,0.0,0.0,34,0.00,,,0.00,WSDL version 420,2013-01-21 01:06:00,
2013-01-20 20:11:00,17.6,-3.6,29.00,SW,218,0.0,2.2,34,0.00,,,0.00,WSDL version 420,2013-01-21 01:11:00,
2013-01-20 20:17:00,17.6,-3.6,29.00,South,169,0.0,2.7,34,0.00,,,0.00,WSDL version 420,2013-01-21 01:17:00,
2013-01-20 20:22:00,17.6,-3.6,29.00,NE,50,0.0,2.7,34,0.00,,,0.00,WSDL version 420,2013-01-21 01:22:00,
2013-01-20 20:27:00,17.6,-3.6,29.00,SE,143,0.0,2.2,34,0.00,,,0.00,WSDL version 420,2013-01-21 01:27:00,
2013-01-20 20:32:00,17.6,-3.6,29.00,East,95,0.0,2.2,34,0.00,,,0.00,WSDL version 420,2013-01-21 01:32:00,
2013-01-20 20:37:00,17.5,-3.8,29.00,ESE,107,0.0,4.5,34,0.00,,,0.00,WSDL version 420,2013-01-21 01:37:00,
2013-01-20 20:43:00,17.5,-3.8,29.00,SE,128,0.0,4.0,34,0.00,,,0.00,WSDL version 420,2013-01-21 01:43:00,
2013-01-20 20:49:00,17.3,-3.9,29.00,ENE,73,0.0,3.1,34,0.00,,,0.00,WSDL version 420,2013-01-21 01:49:00,
2013-01-20 20:55:00,17.2,-4.0,29.00,SSE,166,0.0,3.1,34,0.00,,,0.00,WSDL version 420,2013-01-21 01:55:00,
2013-01-20 21:01:00,17.0,-4.2,29.00,NNE,33,0.0,0.0,34,0.00,,,0.00,WSDL version 420,2013-01-21 02:01:00,
2013-01-20 21:06:00,16.9,-4.2,29.00,ESE,115,0.0,0.0,34,0.00,,,0.00,WSDL version 420,2013-01-21 02:06:00,
2013-01-20 21:11:00,16.8,-3.8,29.00,East,90,0.0,0.0,35,0.00,,,0.00,WSDL version 420,2013-01-21 02:11:00,
2013-01-20 21:17:00,16.8,-3.8,29.00,SSW,208,0.0,0.0,35,0.00,,,0.00,WSDL version 420,2013-01-21 02:17:00,
2013-01-20 21:22:00,16.9,-3.7,29.00,SSE,163,0.0,0.0,35,0.00,,,0.00,WSDL version 420,2013-01-21 02:22:00,
2013-01-20 21:27:00,16.9,-3.7,29.00,SSE,155,0.0,0.0,35,0.00,,,0.00,WSDL version 420,2013-01-21 02:27:00,
2013-01-20 21:33:00,16.9,-3.6,29.00,ESE,113,0.0,0.0,36,0.00,,,0.00,WSDL version 420,2013-01-21 02:33:00,
2013-01-20 21:38:00,16.9,-3.3,29.00,ESE,115,0.0,0.0,36,0.00,,,0.00,WSDL version 420,2013-01-21 02:38:00,
2013-01-20 21:43:00,16.9,-3.2,29.00,ENE,71,0.0,2.2,36,0.00,,,0.00,WSDL version 420,2013-01-21 02:43:00,
2013-01-20 21:48:00,16.9,-3.2,29.00,SSE,158,0.0,2.2,36,0.00,,,0.00,WSDL version 420,2013-01-21 02:48:00,
2013-01-20 21:53:00,16.9,-3.2,29.00,SW,230,0.0,0.0,36,0.00,,,0.00,WSDL version 420,2013-01-21 02:53:00,
2013-01-20 21:59:00,16.7,-3.7,29.00,ENE,75,0.0,0.0,35,0.00,,,0.00,WSDL version 420,2013-01-21 02:59:00,
2013-01-20 22:05:00,16.6,-4.0,29.00,SSE,154,0.0,2.7,35,0.00,,,0.00,WSDL version 420,2013-01-21 03:05:00,
2013-01-20 22:10:00,16.5,-4.1,29.00,East,90,0.0,2.7,35,0.00,,,0.00,WSDL version 420,2013-01-21 03:10:00,
2013-01-20 22:16:00,16.4,-4.2,29.00,ESE,115,0.0,0.0,35,0.00,,,0.00,WSDL version 420,2013-01-21 03:16:00,
2013-01-20 22:22:00,16.4,-4.2,29.00,East,90,0.0,0.0,35,0.00,,,0.00,WSDL version 420,2013-01-21 03:22:00,
2013-01-20 22:28:00,16.2,-3.8,29.00,SE,135,0.0,0.0,36,0.00,,,0.00,WSDL version 420,2013-01-21 03:28:00,
2013-01-20 22:33:00,16.2,-4.0,29.00,NNE,16,0.0,0.0,35,0.00,,,0.00,WSDL version 420,2013-01-21 03:33:00,
2013-01-20 22:39:00,16.2,-3.8,29.00,SE,130,0.0,0.0,36,0.00,,,0.00,WSDL version 420,2013-01-21 03:39:00,
2013-01-20 22:44:00,16.0,-4.0,29.00,NNE,28,0.0,0.0,36,0.00,,,0.00,WSDL version 420,2013-01-21 03:44:00,
2013-01-20 22:49:00,15.9,-4.1,29.00,ESE,103,0.0,0.0,36,0.00,,,0.00,WSDL version 420,2013-01-21 03:49:00,
2013-01-20 22:55:00,15.7,-4.2,29.00,NE,39,0.0,0.0,36,0.00,,,0.00,WSDL version 420,2013-01-21 03:55:00,
2013-01-20 23:00:00,15.5,-4.4,29.00,NNE,18,0.0,0.0,36,0.00,,,0.00,WSDL version 420,2013-01-21 04:00:00,
2013-01-20 23:05:00,15.4,-4.4,29.00,North,350,0.0,0.0,37,0.00,,,0.00,WSDL version 420,2013-01-21 04:05:00,
2013-01-20 23:10:00,15.2,-4.3,29.00,ENE,73,0.0,0.0,37,0.00,,,0.00,WSDL version 420,2013-01-21 04:10:00,
2013-01-20 23:15:00,15.0,-4.4,28.97,ESE,107,0.0,0.0,37,0.00,,,0.00,WSDL version 420,2013-01-21 04:15:00,
2013-01-20 23:21:00,14.9,-4.1,28.97,East,80,0.0,0.0,38,0.00,,,0.00,WSDL version 420,2013-01-21 04:21:00,
2013-01-20 23:27:00,14.8,-4.1,28.97,East,100,0.0,0.0,38,0.00,,,0.00,WSDL version 420,2013-01-21 04:27:00,
2013-01-20 23:32:00,14.5,-3.8,28.97,SE,129,0.0,0.0,39,0.00,,,0.00,WSDL version 420,2013-01-21 04:32:00,
2013-01-20 23:37:00,14.4,-3.7,28.97,ESE,120,0.0,0.0,40,0.00,,,0.00,WSDL version 420,2013-01-21 04:37:00,
2013-01-20 23:43:00,14.2,-3.7,28.97,East,90,0.0,0.0,40,0.00,,,0.00,WSDL version 420,2013-01-21 04:43:00,
2013-01-20 23:49:00,14.2,-3.0,28.97,East,100,0.0,0.0,42,0.00,,,0.00,WSDL version 420,2013-01-21 04:49:00,
2013-01-20 23:54:00,14.2,-2.8,28.97,East,84,0.0,0.0,42,0.00,,,0.00,WSDL version 420,2013-01-21 04:54:00,